Location: Krasnoyarskiy Pitomnik
(51.1333°N, 71.6167°E)
Time: 23:38:43
(UTC+00:00)

Vanguard 1 - Pass Details

Date: 15 April 2024
Orbit: 651 x 3826 km, 34.2° (Epoch: 18 May)

Event Time Altitude Azimuth Distance (km) Brightness Sun altitude
Rises 23:18:17 0° 208° (SSW) 7,795 14.1 -9.2°
Reaches altitude 10° 23:25:44 10° 197° (SSW) 6,436 13.8 -8.1°
Maximum altitude 23:38:32 22° 155° (SSE) 4,514 13.4 -6.3°
Drops below altitude 10° 23:47:44 10° 111° (ESE) 4,523 14.2 -5.0°
Sets 23:51:39 0° 97° (E) 5,059 14.9 -4.4°
